User: anonymous   Login
Location: Asheville, NC
(35.6000°N, 82.5500°W)
Time: 06:24:42
(UTC-04:00)
Language:

XW-2B - Orbit

View from above orbital plane
View from above orbital plane
View from above satellite
View from above satellite

Ground track
Ground track

The orbit data is extracted from the following two-line orbital elements,

1 40911U 15049N   18202.89039635  .00000561  00000-0  33255-4 0  9994
2 40911  97.4608 205.9908 0012581 268.0926  91.8866 15.15340821156655
Epoch (UTC): 21 July 2018 21:22:10
Eccentricity: 0.0012581
inclination: 97.4608°
perigee height: 511 km
apogee height: 528 km
right ascension of ascending node: 205.9908°
argument of perigee: 268.0926°
revolutions per day: 15.15340821
mean anomaly at epoch: 91.8866°
orbit number at epoch: 15665

The dashed part of the orbit path shows where the satellite is in the earth's shadow,  

DLR